Terminal Aerodrome Forecast
Issued by NWS

Home | Current Version | Previous Version | Text Only | Print | Product List | Glossary On
Versions: 1 2 3 4 5 6 7 8 9 10 11 12 13 14 15
000
FTUS43 KOAX 201100
TAFBFF
TAF
KBFF 201136Z 2012/2112 32006KT P6SM SKC
     FM202000 03010G18KT P6SM FEW120
     FM210200 04005KT P6SM SCT120=

USA.gov is the U.S. government's official web portal to all federal, state and local government web resources and services.